UAE755 EDDN-EDDC

Flight info

Callsign UAE755
Flight time 0h 30m
Altitude 21000
Route ERETO1G ERETO Z715 ABKIS Q240 DRN DCT
Aircraft B77W/H-SDE1E2E3FGHIJ2J3J4J5M1RWXY/LB1D1

Departure

Time 2026-05-06 19:10
Airport Nuremberg Airport (EDDN)

Arrival

Time 2026-05-06 19:40
Airport Dresden Airport (EDDC)
Time Latitude Longitude Altitude Speed Heading
2026-05-06 18:43 49.49552 11.07589 1037 ft 0 kts 188°
2026-05-06 19:00 49.49554 11.07590 1038 ft 2 kts 188°
2026-05-06 19:00 49.49568 11.07593 1039 ft 2 kts 188°
2026-05-06 19:00 49.49579 11.07596 1040 ft 2 kts 188°
2026-05-06 19:01 49.49591 11.07599 1041 ft 2 kts 170°
2026-05-06 19:01 49.49601 11.07591 1041 ft 2 kts 116°
2026-05-06 19:01 49.49604 11.07581 1041 ft 0 kts 95°
2026-05-06 19:04 49.49603 11.07590 1041 ft 6 kts 96°
2026-05-06 19:04 49.49592 11.07715 1042 ft 13 kts 98°
2026-05-06 19:05 49.49580 11.07845 1043 ft 12 kts 98°
2026-05-06 19:05 49.49567 11.07975 1043 ft 12 kts 99°
2026-05-06 19:05 49.49553 11.08104 1043 ft 12 kts 99°
2026-05-06 19:05 49.49541 11.08233 1043 ft 12 kts 98°
2026-05-06 19:06 49.49555 11.08351 1047 ft 8 kts 47°
2026-05-06 19:06 49.49606 11.08388 1048 ft 7 kts 37°
2026-05-06 19:06 49.49618 11.08461 1048 ft 7 kts 105°
2026-05-06 19:06 49.49602 11.08583 1050 ft 16 kts 98°
2026-05-06 19:07 49.49586 11.08748 1052 ft 16 kts 98°
2026-05-06 19:07 49.49569 11.08915 1054 ft 16 kts 99°
2026-05-06 19:07 49.49552 11.09082 1054 ft 16 kts 98°
2026-05-06 19:07 49.49536 11.09249 1056 ft 16 kts 98°
2026-05-06 19:08 49.49557 11.09409 1060 ft 16 kts 55°
2026-05-06 19:08 49.49622 11.09542 1062 ft 13 kts 44°
2026-05-06 19:08 49.49686 11.09558 1064 ft 7 kts 333°
2026-05-06 19:08 49.49706 11.09493 1063 ft 7 kts 278°
2026-05-06 19:09 49.49720 11.09338 1061 ft 30 kts 277°
2026-05-06 19:09 49.49781 11.08707 1050 ft 99 kts 278°
2026-05-06 19:09 49.49924 11.07281 1048 ft 167 kts 279°
2026-05-06 19:09 49.50123 11.05382 1450 ft 186 kts 279°
2026-05-06 19:10 49.50332 11.03417 2432 ft 177 kts 278°
2026-05-06 19:10 49.50513 11.01452 2926 ft 203 kts 278°
2026-05-06 19:10 49.50729 10.99121 3208 ft 236 kts 278°
2026-05-06 19:10 49.50994 10.96568 3940 ft 246 kts 285°
2026-05-06 19:11 49.51867 10.94264 4732 ft 258 kts 315°
2026-05-06 19:11 49.53422 10.92835 5702 ft 266 kts 339°
2026-05-06 19:11 49.55270 10.92417 6505 ft 274 kts 358°
2026-05-06 19:11 49.57201 10.92501 6975 ft 280 kts 360°
2026-05-06 19:12 49.59157 10.92591 7034 ft 283 kts 359°
2026-05-06 19:12 49.61135 10.92666 7660 ft 286 kts 359°
2026-05-06 19:12 49.63125 10.92736 8668 ft 286 kts 359°
2026-05-06 19:12 49.65102 10.92795 9605 ft 291 kts 359°
2026-05-06 19:13 49.67154 10.92850 10333 ft 302 kts 359°
2026-05-06 19:13 49.69336 10.93014 10574 ft 328 kts
2026-05-06 19:13 49.71514 10.94468 10797 ft 358 kts 36°
2026-05-06 19:13 49.73440 10.97006 11351 ft 372 kts 41°
2026-05-06 19:14 49.75403 10.99717 12321 ft 381 kts 41°
2026-05-06 19:14 49.77405 11.02445 13460 ft 386 kts 41°
2026-05-06 19:14 49.79452 11.05189 14468 ft 392 kts 40°
2026-05-06 19:14 49.81536 11.07958 15444 ft 399 kts 40°
2026-05-06 19:15 49.83616 11.10847 16334 ft 404 kts 47°
2026-05-06 19:15 49.85194 11.14508 17135 ft 409 kts 65°
2026-05-06 19:15 49.86349 11.18464 18012 ft 416 kts 67°
2026-05-06 19:15 49.87535 11.22560 18713 ft 414 kts 66°
2026-05-06 19:16 49.88740 11.26618 18803 ft 415 kts 66°
2026-05-06 19:16 49.89974 11.30665 18803 ft 415 kts 65°
2026-05-06 19:16 49.91215 11.34686 18800 ft 414 kts 65°
2026-05-06 19:16 49.92460 11.38715 18804 ft 414 kts 65°
2026-05-06 19:17 49.94010 11.42517 19365 ft 420 kts 49°
2026-05-06 19:17 49.96057 11.45714 20282 ft 418 kts 44°
2026-05-06 19:17 49.98159 11.48846 20809 ft 419 kts 44°
2026-05-06 19:17 50.00225 11.51964 20797 ft 419 kts 44°
2026-05-06 19:18 50.02286 11.55135 20799 ft 415 kts 45°
2026-05-06 19:18 50.04309 11.58292 20799 ft 412 kts 45°
2026-05-06 19:18 50.06317 11.61446 20801 ft 412 kts 45°
2026-05-06 19:18 50.08320 11.64630 20807 ft 413 kts 46°
2026-05-06 19:19 50.10299 11.67916 20806 ft 414 kts 47°
2026-05-06 19:19 50.12255 11.71219 20805 ft 414 kts 47°
2026-05-06 19:19 50.14213 11.74516 20806 ft 414 kts 47°
2026-05-06 19:19 50.16175 11.77805 20802 ft 414 kts 47°
2026-05-06 19:20 50.18118 11.81122 20803 ft 414 kts 50°
2026-05-06 19:20 50.19841 11.84649 20799 ft 414 kts 57°
2026-05-06 19:20 50.21345 11.88473 20803 ft 413 kts 59°
2026-05-06 19:20 50.22819 11.92319 20804 ft 413 kts 59°
2026-05-06 19:21 50.24306 11.96144 20804 ft 412 kts 59°
2026-05-06 19:21 50.25797 11.99975 20802 ft 412 kts 59°
2026-05-06 19:21 50.27319 12.03778 20803 ft 412 kts 57°
2026-05-06 19:21 50.28934 12.07466 20802 ft 412 kts 55°
2026-05-06 19:22 50.30582 12.11131 20798 ft 412 kts 55°
2026-05-06 19:22 50.32220 12.14806 20796 ft 411 kts 56°
2026-05-06 19:22 50.33837 12.18477 20789 ft 406 kts 56°
2026-05-06 19:22 50.35304 12.22183 20597 ft 397 kts 62°
2026-05-06 19:23 50.36553 12.25872 20664 ft 380 kts 63°
2026-05-06 19:23 50.37763 12.29520 20694 ft 377 kts 63°
2026-05-06 19:23 50.38965 12.33158 20619 ft 376 kts 63°
2026-05-06 19:23 50.40167 12.36789 20253 ft 375 kts 63°
2026-05-06 19:24 50.41373 12.40417 19842 ft 374 kts 63°
2026-05-06 19:24 50.42573 12.44020 19389 ft 373 kts 63°
2026-05-06 19:24 50.43777 12.47630 18973 ft 372 kts 63°
2026-05-06 19:24 50.44971 12.51211 18586 ft 369 kts 63°
2026-05-06 19:25 50.46158 12.54777 18208 ft 367 kts 63°
2026-05-06 19:25 50.47334 12.58310 17818 ft 365 kts 63°
2026-05-06 19:25 50.48488 12.61784 17383 ft 363 kts 63°
2026-05-06 19:25 50.49651 12.65289 16956 ft 361 kts 63°
2026-05-06 19:26 50.50807 12.68779 16552 ft 359 kts 63°
2026-05-06 19:26 50.51955 12.72249 16137 ft 357 kts 63°
2026-05-06 19:26 50.53096 12.75705 15724 ft 356 kts 63°
2026-05-06 19:26 50.54232 12.79147 15328 ft 354 kts 63°
2026-05-06 19:27 50.55360 12.82572 14942 ft 352 kts 64°
2026-05-06 19:27 50.56482 12.85982 14565 ft 350 kts 64°
2026-05-06 19:27 50.57649 12.89321 14158 ft 347 kts 57°
2026-05-06 19:27 50.59108 12.92370 13696 ft 349 kts 51°
2026-05-06 19:28 50.60662 12.95293 13290 ft 347 kts 50°
2026-05-06 19:28 50.62199 12.98129 12935 ft 344 kts 50°
2026-05-06 19:28 50.63748 13.00976 12576 ft 341 kts 50°
2026-05-06 19:28 50.65351 13.03731 12196 ft 339 kts 46°
2026-05-06 19:29 50.67007 13.06353 11873 ft 336 kts 45°
2026-05-06 19:29 50.68645 13.08908 11775 ft 325 kts 45°
2026-05-06 19:29 50.70207 13.11336 11537 ft 310 kts 45°
2026-05-06 19:29 50.71737 13.13708 11322 ft 305 kts 45°
2026-05-06 19:30 50.73242 13.16039 11086 ft 301 kts 45°
2026-05-06 19:30 50.74731 13.18344 10820 ft 299 kts 45°
2026-05-06 19:30 50.76213 13.20637 10503 ft 298 kts 45°
2026-05-06 19:30 50.77674 13.22898 10215 ft 297 kts 45°
2026-05-06 19:31 50.79149 13.25179 9938 ft 296 kts 45°
2026-05-06 19:31 50.79644 13.25945 9855 ft 295 kts 45°
2026-05-06 19:31 50.81897 13.29430 9401 ft 293 kts 45°
2026-05-06 19:32 50.83351 13.31680 9119 ft 291 kts 44°
2026-05-06 19:32 50.84771 13.33884 8710 ft 279 kts 45°
2026-05-06 19:32 50.86118 13.35978 8337 ft 264 kts 44°
2026-05-06 19:32 50.87384 13.37951 7998 ft 249 kts 45°
2026-05-06 19:33 50.88591 13.39839 7537 ft 240 kts 45°
2026-05-06 19:33 50.89759 13.41678 7109 ft 233 kts 45°
2026-05-06 19:33 50.90877 13.43446 6683 ft 228 kts 44°
2026-05-06 19:33 50.91964 13.45249 6274 ft 225 kts 48°
2026-05-06 19:34 50.92971 13.47115 5845 ft 221 kts 47°
2026-05-06 19:34 50.94017 13.48848 5409 ft 217 kts 46°
2026-05-06 19:34 50.95068 13.50635 5016 ft 224 kts 45°
2026-05-06 19:34 50.96161 13.52426 4625 ft 229 kts 44°
2026-05-06 19:35 50.97274 13.54194 4486 ft 218 kts 44°
2026-05-06 19:35 50.98302 13.55850 4452 ft 206 kts 43°
2026-05-06 19:35 50.99360 13.57394 4172 ft 207 kts 40°
2026-05-06 19:35 51.00437 13.58888 3885 ft 205 kts 40°
2026-05-06 19:36 51.01470 13.60308 3604 ft 192 kts 39°
2026-05-06 19:36 51.02442 13.61645 3357 ft 179 kts 40°
2026-05-06 19:36 51.03373 13.62924 3158 ft 172 kts 40°
2026-05-06 19:36 51.04251 13.64132 2906 ft 163 kts 40°
2026-05-06 19:37 51.05074 13.65265 2690 ft 150 kts 41°
2026-05-06 19:37 51.05837 13.66316 2519 ft 145 kts 42°
2026-05-06 19:37 51.06610 13.67382 2350 ft 148 kts 41°
2026-05-06 19:37 51.07124 13.68090 2199 ft 147 kts 42°
2026-05-06 19:38 51.08126 13.69471 1920 ft 141 kts 42°
2026-05-06 19:38 51.08863 13.70487 1749 ft 140 kts 43°
2026-05-06 19:38 51.09514 13.71405 1554 ft 140 kts 43°
2026-05-06 19:38 51.10240 13.72445 1329 ft 140 kts 41°
2026-05-06 19:39 51.10971 13.73456 1180 ft 139 kts 40°
2026-05-06 19:39 51.11709 13.74474 1007 ft 141 kts 39°
2026-05-06 19:39 51.12453 13.75466 827 ft 140 kts 39°
2026-05-06 19:39 51.13188 13.76451 752 ft 130 kts 41°
2026-05-06 19:40 51.13696 13.77158 752 ft 65 kts 41°
2026-05-06 19:40 51.13892 13.77429 753 ft 24 kts 41°
2026-05-06 19:40 51.14021 13.77606 750 ft 24 kts 40°
2026-05-06 19:40 51.14149 13.77783 751 ft 24 kts 41°
2026-05-06 19:41 51.14277 13.77961 752 ft 24 kts 41°
2026-05-06 19:41 51.14368 13.78132 752 ft 13 kts 89°
2026-05-06 19:41 51.14318 13.78260 752 ft 14 kts 129°
2026-05-06 19:41 51.14242 13.78356 751 ft 14 kts 174°
2026-05-06 19:42 51.14158 13.78275 753 ft 15 kts 221°
2026-05-06 19:42 51.14081 13.78170 750 ft 17 kts 220°
2026-05-06 19:42 51.13937 13.77970 750 ft 31 kts 221°
2026-05-06 19:42 51.13780 13.77755 751 ft 30 kts 221°
2026-05-06 19:43 51.13623 13.77538 752 ft 30 kts 221°
2026-05-06 19:43 51.13465 13.77320 751 ft 30 kts 220°
2026-05-06 19:43 51.13307 13.77104 753 ft 30 kts 220°
2026-05-06 19:43 51.13150 13.76885 751 ft 30 kts 221°
2026-05-06 19:44 51.12998 13.76676 751 ft 23 kts 221°
2026-05-06 19:44 51.12890 13.76529 751 ft 16 kts 220°
2026-05-06 19:44 51.12814 13.76455 752 ft 13 kts 184°
2026-05-06 19:44 51.12746 13.76539 750 ft 12 kts 131°
2026-05-06 19:45 51.12714 13.76556 750 ft 4 kts 190°
2026-05-06 19:45 51.12687 13.76519 751 ft 6 kts 221°
2026-05-06 19:45 51.12668 13.76493 750 ft 0 kts 221°